Regional Weather Roundup
Issued by NWS

Home | Current Version | Previous Version | Text Only | Print | Product List | Glossary On
Versions: 1 2 3 4 5 6 7 8 9 10 11 12 13 14 15 16 17 18 19 20 21 22 23 24 25 26 27
000
ASUS42 KFFC 271603
RWRGA
WEATHER ROUNDUP FOR GEORGIA
NATIONAL WEATHER SERVICE PEACHTREE CITY GA
1200 PM EDT MON JUN 27 2016

NOTE: "FAIR" INDICATES FEW OR NO CLOUDS BELOW 12,000 FEET WITH NO
SIGNIFICANT WEATHER AND/OR OBSTRUCTIONS TO VISIBILITY.

* = USE WITH CAUTION. THE STATIONS MARKED WITH AN ASTERISK MAY NOT
REPORT WEATHER SUCH AS PRECIPITATION, FOG, OR THUNDER AND ARE NOT
QUALITY CONTROLLED BY NWS.

THE REMARK "TC" DENOTES TEMPERATURE READING IN DEGREES CELSIUS.

GAZ001>058-271700-
NORTH GEORGIA

CITY           SKY/WX    TMP DP  RH WIND       PRES   REMARKS
ATLANTA        MOSUNNY   86  70  58 W10       30.13S HX  90
ATHENS         MOSUNNY   91  70  49 VRB5      30.11R HX  96
CHAMBLEE       SUNNY     87  68  52 S6        30.12F HX  90
PEACHTREE CITY SUNNY     85  71  63 VRB6      30.13S HX  90
ROME           SUNNY     87  68  52 VRB5      30.09F HX  90
WEST ATLANTA   SUNNY     85  68  56 SW6       30.12S
GAINESVILLE    SUNNY     86  68  54 W5        30.15S
CARTERSVILLE   MOSUNNY   84  71  65 S6        30.11F


CITY           SKY/WX    TMP DP  RH WIND       PRES   REMARKS
DALTON*        SUNNY     86  68  54 CALM      30.10F
LAWRENCEVILLE* SUNNY     88  70  55 W9        30.13S HX  92
MARIETTA       MOSUNNY   85  70  61 SW6       30.13S
KENNESAW*      SUNNY     84  68  58 W6        30.08S
CANTON*        SUNNY     88  57  35 SE3       30.14S
$$

GAZ059>098-102>109-271700-
CENTRAL GEORGIA

CITY           SKY/WX    TMP DP  RH WIND       PRES   REMARKS
AUGUSTA-BUSH   MOSUNNY   89  74  60 VRB5      30.07F HX  98
AUGUSTA-DANIEL PTSUNNY   88  71  57 E3        30.09S HX  94
COLUMBUS       SUNNY     86  67  52 MISG      30.10F
MACON          SUNNY     89  69  51 SW8       30.09F HX  93
ROBINS AFB     SUNNY     89  72  56 VRB3      30.08F HX  96


CITY           SKY/WX    TMP DP  RH WIND       PRES   REMARKS
LAGRANGE*      SUNNY     89  71  54 SW3       30.12S HX  94
SYLVANIA*      MOSUNNY   88  74  63 CALM      30.10S HX  96
MILLEDGEVILLE* SUNNY     88  73  62 CALM      30.09F HX  96
$$

GAZ099>101-110>166-271700-
SOUTH GEORGIA

CITY           SKY/WX    TMP DP  RH WIND       PRES   REMARKS
SAVANNAH       MOSUNNY   89  71  55 VRB5      30.08F HX  95
VALDOSTA       MOSUNNY   88  73  61 SE5       30.09S HX  95
ALMA           SUNNY     85  73  67 VRB5      30.09F HX  91
ST SIMONS      PTSUNNY   85  73  67 E6        30.08S HX  91
FT STEWART     MOSUNNY   87  72  60 CALM      30.06F HX  93
ALBANY         SUNNY     86  70  58 SW7       30.12S HX  90
HUNTER AFB     SUNNY     88  72  57 N9        30.06S HX  95
MOODY AFB      MOSUNNY   89  70  54 VRB6      30.09R HX  94
BRUNSWICK      PTSUNNY   88  77  70 N5        30.09S HX 100


CITY           SKY/WX    TMP DP  RH WIND       PRES   REMARKS
BAINBRIDGE*    SUNNY     84  70  61 CALM      30.11S
MOULTRIE*      SUNNY     86  70  58 CALM      30.11R HX  90
VIDALIA*       PTSUNNY   88  73  62 W3        30.09F HX  96
WAYCROSS*      PTSUNNY   88  78  72 CALM      30.10S HX 100
DOUGLAS*       SUNNY     86  70  58 E3        30.11S HX  90
$$




USA.gov is the U.S. government's official web portal to all federal, state and local government web resources and services.